Wetterdaten: Dienstag, 09.08.2011
Datum Zeit Temp. Auen Feucht Auen Luftdruck Regen Richtung Richtung Windben
09.08.2011 00:00 12,3 C 99 % 1085,6 hPa 0,0 mm NO 45 3,6 km/h (1 Bft)
09.08.2011 00:05 12,3 C 99 % 1085,8 hPa 0,0 mm NO 45 3,6 km/h (1 Bft)
09.08.2011 00:10 12,3 C 99 % 1085,9 hPa 0,0 mm O 88 3,6 km/h (1 Bft)
09.08.2011 00:15 12,4 C 99 % 1085,9 hPa 0,0 mm SO 130 3,6 km/h (1 Bft)
09.08.2011 00:20 12,3 C 99 % 1085,9 hPa 0,0 mm S 181 3,6 km/h (1 Bft)
09.08.2011 00:25 12,3 C 99 % 1086,3 hPa 0,0 mm S 181 2,5 km/h (1 Bft)
09.08.2011 00:30 12,3 C 99 % 1086,2 hPa 0,0 mm S 181 1,1 km/h (1 Bft)
09.08.2011 00:35 12,3 C 99 % 1086,1 hPa 0,0 mm S 181 1,1 km/h (1 Bft)
09.08.2011 00:40 12,2 C 99 % 1086,2 hPa 0,0 mm N 0 0,0 km/h (0 Bft)
09.08.2011 00:45 12,2 C 99 % 1086,3 hPa 0,0 mm S 181 2,5 km/h (1 Bft)
09.08.2011 00:50 12,1 C 99 % 1086,4 hPa 0,0 mm S 190 7,2 km/h (2 Bft)
09.08.2011 00:55 12,1 C 99 % 1086,2 hPa 0,0 mm SW 232 7,2 km/h (2 Bft)
09.08.2011 01:00 12,2 C 99 % 1086,3 hPa 0,0 mm W 268 9,7 km/h (2 Bft)
09.08.2011 01:05 12,2 C 99 % 1086,4 hPa 0,0 mm W-NW 290 9,7 km/h (2 Bft)
09.08.2011 01:10 12,5 C 99 % 1086,3 hPa 0,0 mm W-NW 298 9,7 km/h (2 Bft)
09.08.2011 01:15 12,6 C 98 % 1086,2 hPa 0,0 mm W 264 11,2 km/h (2 Bft)
09.08.2011 01:20 12,6 C 97 % 1086,3 hPa 0,0 mm W 260 11,2 km/h (2 Bft)
09.08.2011 01:25 12,5 C 96 % 1086,4 hPa 0,0 mm W 268 9,7 km/h (2 Bft)
09.08.2011 01:30 12,4 C 95 % 1086,4 hPa 0,0 mm W 265 11,2 km/h (2 Bft)
09.08.2011 01:35 12,4 C 96 % 1086,6 hPa 0,0 mm W 263 11,2 km/h (2 Bft)
09.08.2011 01:40 12,3 C 96 % 1086,7 hPa 0,0 mm W 270 5,0 km/h (1 Bft)
09.08.2011 01:45 12,2 C 96 % 1086,9 hPa 0,0 mm W-SW 245 6,1 km/h (2 Bft)
09.08.2011 01:50 12,1 C 97 % 1087,0 hPa 0,0 mm SW 231 6,1 km/h (2 Bft)
09.08.2011 01:55 12,0 C 97 % 1086,9 hPa 0,0 mm SW 225 6,1 km/h (2 Bft)
09.08.2011 02:00 12,0 C 98 % 1086,9 hPa 0,0 mm SW 225 5,0 km/h (1 Bft)
09.08.2011 02:05 12,0 C 98 % 1086,7 hPa 0,0 mm SW 225 3,6 km/h (1 Bft)
09.08.2011 02:10 12,0 C 98 % 1086,7 hPa 0,0 mm W-SW 240 5,0 km/h (1 Bft)
09.08.2011 02:15 12,0 C 98 % 1086,7 hPa 0,0 mm W 259 5,0 km/h (1 Bft)
09.08.2011 02:20 11,9 C 98 % 1086,8 hPa 0,0 mm W 270 5,0 km/h (1 Bft)
09.08.2011 02:25 11,9 C 98 % 1086,8 hPa 0,0 mm W 270 5,0 km/h (1 Bft)
09.08.2011 02:30 11,9 C 98 % 1086,8 hPa 0,0 mm W 270 5,0 km/h (1 Bft)
09.08.2011 02:35 11,9 C 98 % 1086,7 hPa 0,0 mm W 270 3,6 km/h (1 Bft)
09.08.2011 02:40 11,8 C 98 % 1086,9 hPa 0,0 mm W 270 3,6 km/h (1 Bft)
09.08.2011 02:45 11,8 C 98 % 1086,9 hPa 0,0 mm W 270 2,5 km/h (1 Bft)
09.08.2011 02:50 11,8 C 98 % 1087,0 hPa 0,0 mm W 270 3,6 km/h (1 Bft)
09.08.2011 02:55 11,9 C 98 % 1087,1 hPa 0,0 mm W 270 3,6 km/h (1 Bft)
09.08.2011 03:00 11,9 C 98 % 1086,9 hPa 0,0 mm W 270 3,6 km/h (1 Bft)
09.08.2011 03:05 11,9 C 98 % 1086,9 hPa 0,0 mm W 270 2,5 km/h (1 Bft)
09.08.2011 03:10 11,9 C 98 % 1086,8 hPa 0,0 mm W 270 1,1 km/h (1 Bft)
09.08.2011 03:15 11,8 C 98 % 1086,9 hPa 0,0 mm W 270 2,5 km/h (1 Bft)
09.08.2011 03:20 11,8 C 98 % 1087,1 hPa 0,0 mm W 270 2,5 km/h (1 Bft)
09.08.2011 03:25 11,7 C 98 % 1087,0 hPa 0,0 mm W 270 2,5 km/h (1 Bft)
09.08.2011 03:30 11,7 C 99 % 1087,0 hPa 0,0 mm N 0 0,0 km/h (0 Bft)
09.08.2011 03:35 11,6 C 99 % 1086,8 hPa 0,0 mm N 0 0,0 km/h (0 Bft)
09.08.2011 03:40 11,6 C 99 % 1087,1 hPa 0,0 mm N 0 0,0 km/h (0 Bft)
09.08.2011 03:45 11,6 C 99 % 1086,9 hPa 0,0 mm N 0 0,0 km/h (0 Bft)
09.08.2011 03:50 11,5 C 99 % 1086,8 hPa 0,0 mm W 270 2,5 km/h (1 Bft)
09.08.2011 03:55 11,4 C 99 % 1087,2 hPa 0,0 mm W 270 2,5 km/h (1 Bft)
09.08.2011 04:00 11,4 C 99 % 1087,2 hPa 0,0 mm W 270 1,1 km/h (1 Bft)
09.08.2011 04:05 11,4 C 99 % 1087,1 hPa 0,0 mm W 270 1,1 km/h (1 Bft)
09.08.2011 04:10 11,3 C 99 % 1087,2 hPa 0,0 mm W 270 2,5 km/h (1 Bft)
09.08.2011 04:15 11,3 C 99 % 1087,2 hPa 0,0 mm W 270 3,6 km/h (1 Bft)
09.08.2011 04:20 11,3 C 99 % 1087,4 hPa 0,0 mm W 270 3,6 km/h (1 Bft)
09.08.2011 04:25 11,2 C 99 % 1087,2 hPa 0,0 mm W 270 3,6 km/h (1 Bft)
09.08.2011 04:30 11,2 C 99 % 1087,3 hPa 0,0 mm W 270 3,6 km/h (1 Bft)
09.08.2011 04:35 11,2 C 99 % 1087,2 hPa 0,0 mm N 0 0,0 km/h (0 Bft)
09.08.2011 04:40 11,2 C 99 % 1087,3 hPa 0,0 mm N 0 0,0 km/h (0 Bft)
09.08.2011 04:45 11,2 C 99 % 1087,3 hPa 0,0 mm W 270 3,6 km/h (1 Bft)
09.08.2011 04:50 11,2 C 99 % 1087,4 hPa 0,0 mm W 270 5,0 km/h (1 Bft)
09.08.2011 04:55 11,2 C 99 % 1087,2 hPa 0,0 mm W 270 5,0 km/h (1 Bft)
09.08.2011 05:00 11,2 C 99 % 1087,3 hPa 0,0 mm W 270 3,6 km/h (1 Bft)
09.08.2011 05:05 11,2 C 99 % 1087,1 hPa 0,0 mm W 270 2,5 km/h (1 Bft)
09.08.2011 05:10 11,2 C 99 % 1087,2 hPa 0,0 mm W 270 1,1 km/h (1 Bft)
09.08.2011 05:15 11,3 C 99 % 1087,1 hPa 0,0 mm W 270 5,0 km/h (1 Bft)
09.08.2011 05:20 11,3 C 99 % 1087,0 hPa 0,0 mm N-NW 330 6,1 km/h (2 Bft)
09.08.2011 05:25 11,3 C 99 % 1087,3 hPa 0,0 mm O-NO 77 7,2 km/h (2 Bft)
09.08.2011 05:30 11,2 C 99 % 1087,3 hPa 0,0 mm O 89 7,2 km/h (2 Bft)
09.08.2011 05:35 11,2 C 99 % 1087,4 hPa 0,0 mm O-SO 104 6,1 km/h (2 Bft)
09.08.2011 05:40 11,2 C 99 % 1087,5 hPa 0,0 mm O 94 6,1 km/h (2 Bft)
09.08.2011 05:45 11,2 C 99 % 1087,7 hPa 0,0 mm O 93 6,1 km/h (2 Bft)
09.08.2011 05:50 11,3 C 99 % 1087,5 hPa 0,0 mm S-SO 159 6,1 km/h (2 Bft)
09.08.2011 05:55 11,3 C 99 % 1087,5 hPa 0,0 mm S 181 5,0 km/h (1 Bft)
09.08.2011 06:00 11,3 C 99 % 1087,6 hPa 0,0 mm S 181 5,0 km/h (1 Bft)
09.08.2011 06:05 11,3 C 99 % 1087,7 hPa 0,0 mm S 181 5,0 km/h (1 Bft)
09.08.2011 06:10 11,3 C 99 % 1087,7 hPa 0,0 mm S 181 1,1 km/h (1 Bft)
09.08.2011 06:15 11,3 C 99 % 1087,7 hPa 0,0 mm S 181 1,1 km/h (1 Bft)
09.08.2011 06:20 11,4 C 99 % 1087,6 hPa 0,0 mm S 181 1,1 km/h (1 Bft)
09.08.2011 06:25 11,4 C 99 % 1087,6 hPa 0,0 mm S 181 2,5 km/h (1 Bft)
09.08.2011 06:30 11,5 C 99 % 1087,8 hPa 0,0 mm S 181 2,5 km/h (1 Bft)
09.08.2011 06:35 11,6 C 99 % 1087,8 hPa 0,0 mm S 181 3,6 km/h (1 Bft)
09.08.2011 06:40 11,6 C 99 % 1087,7 hPa 0,0 mm S-SO 155 5,0 km/h (1 Bft)
09.08.2011 06:45 11,6 C 99 % 1087,8 hPa 0,0 mm O-NO 70 5,0 km/h (1 Bft)
09.08.2011 06:50 11,6 C 99 % 1087,8 hPa 0,0 mm O-NO 66 3,6 km/h (1 Bft)
09.08.2011 06:55 11,7 C 99 % 1087,7 hPa 0,0 mm O 90 3,6 km/h (1 Bft)
09.08.2011 07:00 11,7 C 99 % 1087,7 hPa 0,0 mm O 90 5,0 km/h (1 Bft)
09.08.2011 07:05 11,7 C 99 % 1087,8 hPa 0,0 mm O 90 5,0 km/h (1 Bft)
09.08.2011 07:10 11,7 C 99 % 1087,8 hPa 0,0 mm O 90 5,0 km/h (1 Bft)
09.08.2011 07:15 11,8 C 99 % 1087,7 hPa 0,0 mm O 84 5,0 km/h (1 Bft)
09.08.2011 07:20 11,8 C 99 % 1087,8 hPa 0,0 mm O-NO 77 5,0 km/h (1 Bft)
09.08.2011 07:25 11,9 C 99 % 1087,8 hPa 0,0 mm O 85 5,0 km/h (1 Bft)
09.08.2011 07:30 11,9 C 99 % 1087,7 hPa 0,0 mm O 90 5,0 km/h (1 Bft)
09.08.2011 07:35 12,0 C 99 % 1087,9 hPa 0,0 mm O 90 7,2 km/h (2 Bft)
09.08.2011 07:40 12,0 C 99 % 1087,8 hPa 0,0 mm O 92 7,2 km/h (2 Bft)
09.08.2011 07:45 12,1 C 99 % 1087,6 hPa 0,0 mm O 90 7,2 km/h (2 Bft)
09.08.2011 07:50 12,3 C 99 % 1087,8 hPa 0,0 mm O 95 5,0 km/h (1 Bft)
09.08.2011 07:55 12,6 C 99 % 1087,5 hPa 0,0 mm O 96 5,0 km/h (1 Bft)
09.08.2011 08:00 12,8 C 99 % 1087,5 hPa 0,0 mm O 84 6,1 km/h (2 Bft)
09.08.2011 08:05 12,8 C 99 % 1087,6 hPa 0,0 mm O-NO 61 6,1 km/h (2 Bft)
09.08.2011 08:10 13,0 C 99 % 1087,5 hPa 0,0 mm NO 45 5,0 km/h (1 Bft)
09.08.2011 08:15 13,1 C 99 % 1087,7 hPa 0,0 mm NO 47 5,0 km/h (1 Bft)
09.08.2011 08:20 13,1 C 99 % 1087,6 hPa 0,0 mm O 90 2,5 km/h (1 Bft)
09.08.2011 08:25 13,1 C 99 % 1087,5 hPa 0,0 mm O 90 3,6 km/h (1 Bft)
09.08.2011 08:30 13,2 C 99 % 1087,8 hPa 0,3 mm O 90 3,6 km/h (1 Bft)
09.08.2011 08:35 13,2 C 99 % 1087,6 hPa 0,0 mm O 90 1,1 km/h (1 Bft)
09.08.2011 08:40 13,3 C 99 % 1087,7 hPa 0,0 mm O 90 1,1 km/h (1 Bft)
09.08.2011 08:45 13,4 C 99 % 1087,5 hPa 0,0 mm O-SO 105 5,0 km/h (1 Bft)
09.08.2011 08:50 13,6 C 99 % 1087,6 hPa 0,0 mm SO 134 5,0 km/h (1 Bft)
09.08.2011 08:55 13,7 C 96 % 1087,6 hPa 0,0 mm SW 225 7,2 km/h (2 Bft)
09.08.2011 09:00 13,7 C 93 % 1087,7 hPa 0,0 mm W-SW 237 9,7 km/h (2 Bft)
09.08.2011 09:05 13,7 C 93 % 1088,2 hPa 0,0 mm SW 231 9,7 km/h (2 Bft)
09.08.2011 09:10 13,3 C 94 % 1088,3 hPa 0,9 mm SW 228 5,0 km/h (1 Bft)
09.08.2011 09:15 13,1 C 95 % 1088,1 hPa 0,0 mm W-SW 238 5,0 km/h (1 Bft)
09.08.2011 09:20 13,0 C 95 % 1088,3 hPa 0,0 mm SW 234 5,0 km/h (1 Bft)
09.08.2011 09:25 12,9 C 96 % 1088,3 hPa 0,0 mm SW 216 5,0 km/h (1 Bft)
09.08.2011 09:30 13,0 C 97 % 1088,2 hPa 0,3 mm S 184 3,6 km/h (1 Bft)
09.08.2011 09:35 12,9 C 97 % 1088,2 hPa 0,3 mm S-SW 207 3,6 km/h (1 Bft)
09.08.2011 09:40 13,0 C 98 % 1088,3 hPa 0,0 mm SW 225 3,6 km/h (1 Bft)
09.08.2011 09:45 13,2 C 98 % 1088,1 hPa 0,0 mm S-SW 193 3,6 km/h (1 Bft)
09.08.2011 09:50 13,4 C 99 % 1088,0 hPa 0,0 mm S-SW 195 6,1 km/h (2 Bft)
09.08.2011 09:55 13,6 C 98 % 1087,9 hPa 0,0 mm S-SW 196 6,1 km/h (2 Bft)
09.08.2011 10:00 13,7 C 98 % 1087,9 hPa 0,0 mm S 181 5,0 km/h (1 Bft)
09.08.2011 10:05 13,7 C 98 % 1088,0 hPa 0,0 mm S 181 5,0 km/h (1 Bft)
09.08.2011 10:10 13,7 C 96 % 1088,0 hPa 0,0 mm NO 45 1,1 km/h (1 Bft)
09.08.2011 10:15 13,8 C 97 % 1087,8 hPa 0,0 mm NO 45 2,5 km/h (1 Bft)
09.08.2011 10:20 13,8 C 97 % 1087,8 hPa 0,0 mm S 181 5,0 km/h (1 Bft)
09.08.2011 10:25 13,9 C 97 % 1087,8 hPa 0,0 mm SW 218 5,0 km/h (1 Bft)
09.08.2011 10:30 14,0 C 97 % 1087,7 hPa 0,0 mm SW 225 3,6 km/h (1 Bft)
09.08.2011 10:35 14,8 C 97 % 1087,5 hPa 0,0 mm SW 225 3,6 km/h (1 Bft)
09.08.2011 10:40 15,5 C 95 % 1087,2 hPa 0,0 mm SW 225 3,6 km/h (1 Bft)
09.08.2011 10:45 16,7 C 94 % 1087,0 hPa 0,0 mm W-SW 237 6,1 km/h (2 Bft)
09.08.2011 10:50 17,2 C 91 % 1086,8 hPa 0,0 mm W 266 7,2 km/h (2 Bft)
09.08.2011 10:55 17,3 C 85 % 1086,5 hPa 0,0 mm W 269 13,3 km/h (3 Bft)
09.08.2011 11:00 17,2 C 83 % 1086,6 hPa 0,0 mm W 267 13,3 km/h (3 Bft)
09.08.2011 11:05 17,2 C 83 % 1086,6 hPa 0,0 mm W 271 13,3 km/h (3 Bft)
09.08.2011 11:10 17,1 C 83 % 1086,4 hPa 0,0 mm W 270 13,3 km/h (3 Bft)
09.08.2011 11:15 17,2 C 82 % 1086,6 hPa 0,0 mm W 263 13,3 km/h (3 Bft)
09.08.2011 11:20 17,3 C 80 % 1086,5 hPa 0,0 mm W 263 11,2 km/h (2 Bft)
09.08.2011 11:25 17,6 C 81 % 1086,6 hPa 0,0 mm W 265 11,2 km/h (2 Bft)
09.08.2011 11:30 17,6 C 76 % 1086,6 hPa 0,0 mm W-SW 244 11,2 km/h (2 Bft)
09.08.2011 11:35 17,5 C 76 % 1086,6 hPa 0,0 mm W 260 13,3 km/h (3 Bft)
09.08.2011 11:40 17,5 C 74 % 1086,7 hPa 0,0 mm W 274 13,3 km/h (3 Bft)
09.08.2011 11:45 17,3 C 72 % 1086,4 hPa 0,0 mm W 264 11,2 km/h (2 Bft)
09.08.2011 11:50 17,5 C 71 % 1086,6 hPa 0,0 mm W 270 11,2 km/h (2 Bft)
09.08.2011 11:55 17,7 C 71 % 1086,4 hPa 0,0 mm W 281 13,3 km/h (3 Bft)
09.08.2011 12:00 18,1 C 67 % 1086,2 hPa 0,0 mm W 267 13,3 km/h (3 Bft)
09.08.2011 12:05 18,1 C 67 % 1086,1 hPa 0,0 mm W 267 13,3 km/h (3 Bft)
09.08.2011 12:10 18,6 C 64 % 1085,9 hPa 0,0 mm W 276 14,8 km/h (3 Bft)
09.08.2011 12:15 18,6 C 67 % 1085,8 hPa 0,0 mm W 262 14,8 km/h (3 Bft)
09.08.2011 12:20 18,2 C 64 % 1086,0 hPa 0,0 mm SW 230 20,9 km/h (4 Bft)
09.08.2011 12:25 18,0 C 63 % 1085,9 hPa 0,0 mm W-SW 240 20,9 km/h (4 Bft)
09.08.2011 12:30 18,0 C 65 % 1085,7 hPa 0,0 mm W-SW 254 14,8 km/h (3 Bft)
09.08.2011 12:35 18,4 C 61 % 1085,6 hPa 0,0 mm W 261 14,8 km/h (3 Bft)
09.08.2011 12:40 18,8 C 63 % 1085,4 hPa 0,0 mm W 263 15,8 km/h (3 Bft)
09.08.2011 12:45 18,7 C 61 % 1085,5 hPa 0,0 mm W 263 15,8 km/h (3 Bft)
09.08.2011 12:50 18,5 C 62 % 1085,4 hPa 0,0 mm W 262 14,8 km/h (3 Bft)
09.08.2011 12:55 18,5 C 61 % 1085,6 hPa 0,0 mm W-SW 254 14,8 km/h (3 Bft)
09.08.2011 13:00 18,0 C 61 % 1086,6 hPa 0,0 mm SW 215 28,1 km/h (4 Bft)
09.08.2011 13:05 18,0 C 61 % 1087,1 hPa 0,0 mm SO 142 28,1 km/h (4 Bft)
09.08.2011 13:10 14,6 C 77 % 1087,7 hPa 1,5 mm SO 142 28,1 km/h (4 Bft)
09.08.2011 13:15 13,6 C 82 % 1088,0 hPa 0,0 mm S-SO 167 28,1 km/h (4 Bft)
09.08.2011 13:20 13,2 C 85 % 1088,0 hPa 0,3 mm S-SW 197 19,4 km/h (3 Bft)
09.08.2011 13:25 13,1 C 86 % 1087,9 hPa 0,0 mm O-SO 119 9,7 km/h (2 Bft)
09.08.2011 13:30 13,4 C 88 % 1087,6 hPa 0,0 mm SO 130 8,6 km/h (2 Bft)
09.08.2011 13:35 14,0 C 89 % 1087,5 hPa 0,0 mm SO 139 7,2 km/h (2 Bft)
09.08.2011 13:40 14,7 C 88 % 1087,3 hPa 0,0 mm O-SO 111 6,1 km/h (2 Bft)
09.08.2011 13:45 15,0 C 87 % 1087,4 hPa 0,0 mm SW 231 6,1 km/h (2 Bft)
09.08.2011 13:50 15,3 C 86 % 1087,3 hPa 0,0 mm W-SW 238 6,1 km/h (2 Bft)
09.08.2011 13:55 15,1 C 84 % 1087,4 hPa 0,0 mm W-SW 241 7,2 km/h (2 Bft)
09.08.2011 14:00 15,0 C 84 % 1087,0 hPa 0,0 mm W 265 7,2 km/h (2 Bft)
09.08.2011 14:05 15,0 C 84 % 1087,0 hPa 0,0 mm N-NO 23 5,0 km/h (1 Bft)
09.08.2011 14:10 15,4 C 86 % 1087,2 hPa 0,0 mm O-NO 62 5,0 km/h (1 Bft)
09.08.2011 14:15 16,1 C 86 % 1086,8 hPa 0,0 mm NW 325 5,0 km/h (1 Bft)
09.08.2011 14:20 16,1 C 85 % 1086,9 hPa 0,0 mm W-SW 238 8,6 km/h (2 Bft)
09.08.2011 14:25 15,8 C 85 % 1086,9 hPa 0,0 mm SW 229 8,6 km/h (2 Bft)
09.08.2011 14:30 15,7 C 86 % 1086,8 hPa 0,0 mm W 267 8,6 km/h (2 Bft)
09.08.2011 14:35 15,8 C 86 % 1086,7 hPa 0,0 mm W 273 7,2 km/h (2 Bft)
09.08.2011 14:40 16,1 C 87 % 1086,5 hPa 0,0 mm W-SW 245 7,2 km/h (2 Bft)
09.08.2011 14:45 16,4 C 85 % 1086,5 hPa 0,0 mm W 263 5,0 km/h (1 Bft)
09.08.2011 14:50 16,5 C 83 % 1086,3 hPa 0,0 mm W 260 5,0 km/h (1 Bft)
09.08.2011 14:55 16,3 C 83 % 1086,6 hPa 0,0 mm SW 235 5,0 km/h (1 Bft)
09.08.2011 15:00 16,9 C 82 % 1086,6 hPa 0,0 mm O 94 5,0 km/h (1 Bft)
09.08.2011 15:05 16,9 C 79 % 1086,5 hPa 0,0 mm O-NO 60 5,0 km/h (1 Bft)
09.08.2011 15:10 16,6 C 83 % 1086,7 hPa 0,0 mm NO 35 6,1 km/h (2 Bft)
09.08.2011 15:15 16,5 C 83 % 1086,6 hPa 0,3 mm W-SW 252 11,2 km/h (2 Bft)
09.08.2011 15:20 16,5 C 84 % 1086,6 hPa 0,0 mm W-SW 246 11,2 km/h (2 Bft)
09.08.2011 15:25 16,4 C 84 % 1086,4 hPa 0,0 mm SW 231 9,7 km/h (2 Bft)
09.08.2011 15:30 16,6 C 84 % 1086,4 hPa 0,0 mm SW 235 9,7 km/h (2 Bft)
09.08.2011 15:35 16,6 C 82 % 1086,4 hPa 0,0 mm W-SW 255 11,2 km/h (2 Bft)
09.08.2011 15:40 16,6 C 81 % 1086,4 hPa 0,0 mm W-SW 254 11,2 km/h (2 Bft)
09.08.2011 15:45 16,6 C 77 % 1086,3 hPa 0,0 mm W 269 11,2 km/h (2 Bft)
09.08.2011 15:50 16,5 C 77 % 1086,3 hPa 0,0 mm W-NW 287 9,7 km/h (2 Bft)
09.08.2011 15:55 16,5 C 80 % 1086,4 hPa 0,0 mm W 274 9,7 km/h (2 Bft)
09.08.2011 16:00 16,8 C 79 % 1086,3 hPa 0,0 mm W-SW 242 13,3 km/h (3 Bft)
09.08.2011 16:05 16,8 C 79 % 1086,4 hPa 0,0 mm W-SW 256 13,3 km/h (3 Bft)
09.08.2011 16:10 16,6 C 73 % 1086,7 hPa 0,0 mm W 280 28,1 km/h (4 Bft)
09.08.2011 16:15 15,6 C 71 % 1087,3 hPa 0,0 mm W-NW 290 28,1 km/h (4 Bft)
09.08.2011 16:20 14,6 C 77 % 1087,6 hPa 0,3 mm W-NW 282 28,1 km/h (4 Bft)
09.08.2011 16:25 13,9 C 80 % 1087,8 hPa 0,0 mm W 262 20,9 km/h (4 Bft)
09.08.2011 16:30 13,6 C 83 % 1087,7 hPa 0,0 mm W 259 17,3 km/h (3 Bft)
09.08.2011 16:35 13,6 C 84 % 1087,9 hPa 0,0 mm W 264 17,3 km/h (3 Bft)
09.08.2011 16:40 14,0 C 85 % 1087,6 hPa 0,0 mm W 264 7,2 km/h (2 Bft)
09.08.2011 16:45 14,7 C 86 % 1087,2 hPa 0,0 mm W-SW 256 9,7 km/h (2 Bft)
09.08.2011 16:50 15,4 C 85 % 1086,9 hPa 0,0 mm W 268 14,8 km/h (3 Bft)
09.08.2011 16:55 15,8 C 82 % 1087,2 hPa 0,0 mm W 261 14,8 km/h (3 Bft)
09.08.2011 17:00 16,1 C 81 % 1087,1 hPa 0,0 mm W-SW 246 14,8 km/h (3 Bft)
09.08.2011 17:05 16,1 C 81 % 1087,0 hPa 0,0 mm SW 232 12,2 km/h (2 Bft)
09.08.2011 17:10 16,3 C 79 % 1086,9 hPa 0,0 mm SW 225 12,2 km/h (2 Bft)
09.08.2011 17:15 16,0 C 78 % 1086,9 hPa 0,0 mm W-SW 240 12,2 km/h (2 Bft)
09.08.2011 17:20 15,8 C 79 % 1087,0 hPa 0,0 mm W-SW 254 12,2 km/h (2 Bft)
09.08.2011 17:25 15,9 C 80 % 1087,0 hPa 0,0 mm W-SW 252 12,2 km/h (2 Bft)
09.08.2011 17:30 16,1 C 79 % 1087,0 hPa 0,0 mm W-SW 253 12,2 km/h (2 Bft)
09.08.2011 17:35 16,2 C 80 % 1087,1 hPa 0,0 mm W-SW 247 12,2 km/h (2 Bft)
09.08.2011 17:40 16,3 C 80 % 1086,8 hPa 0,0 mm SW 220 9,7 km/h (2 Bft)
09.08.2011 17:45 16,5 C 79 % 1086,9 hPa 0,0 mm W 279 7,2 km/h (2 Bft)
09.08.2011 17:50 16,6 C 77 % 1086,9 hPa 0,0 mm W-NW 283 9,7 km/h (2 Bft)
09.08.2011 17:55 16,5 C 73 % 1086,9 hPa 0,0 mm W-NW 289 9,7 km/h (2 Bft)
09.08.2011 18:00 16,5 C 73 % 1087,0 hPa 0,0 mm W-NW 298 9,7 km/h (2 Bft)
09.08.2011 18:05 16,5 C 73 % 1086,7 hPa 0,0 mm W-SW 258 6,1 km/h (2 Bft)
09.08.2011 18:10 16,9 C 70 % 1086,9 hPa 0,0 mm SW 232 11,2 km/h (2 Bft)
09.08.2011 18:15 17,1 C 67 % 1086,8 hPa 0,0 mm W-SW 238 13,3 km/h (3 Bft)
09.08.2011 18:20 17,2 C 65 % 1086,6 hPa 0,0 mm SW 229 14,8 km/h (3 Bft)
09.08.2011 18:25 16,8 C 66 % 1086,9 hPa 0,0 mm SW 215 14,8 km/h (3 Bft)
09.08.2011 18:30 16,5 C 66 % 1086,8 hPa 0,0 mm SW 232 14,8 km/h (3 Bft)
09.08.2011 18:35 16,3 C 67 % 1086,8 hPa 0,0 mm W-SW 245 13,3 km/h (3 Bft)
09.08.2011 18:40 16,1 C 68 % 1086,9 hPa 0,0 mm W-SW 237 12,2 km/h (2 Bft)
09.08.2011 18:45 16,1 C 69 % 1086,9 hPa 0,0 mm SW 214 11,2 km/h (2 Bft)
09.08.2011 18:50 16,1 C 69 % 1086,7 hPa 0,0 mm W-SW 256 11,2 km/h (2 Bft)
09.08.2011 18:55 16,0 C 69 % 1086,7 hPa 0,0 mm SW 235 11,2 km/h (2 Bft)
09.08.2011 19:00 15,7 C 69 % 1086,8 hPa 0,0 mm S-SW 198 9,7 km/h (2 Bft)
09.08.2011 19:05 15,7 C 69 % 1086,7 hPa 0,0 mm SW 224 9,7 km/h (2 Bft)
09.08.2011 19:10 15,4 C 70 % 1086,9 hPa 0,0 mm SW 222 8,6 km/h (2 Bft)
09.08.2011 19:15 15,4 C 71 % 1087,2 hPa 0,0 mm S-SW 197 8,6 km/h (2 Bft)
09.08.2011 19:20 15,3 C 71 % 1087,2 hPa 0,0 mm O-SO 115 3,6 km/h (1 Bft)
09.08.2011 19:25 15,2 C 72 % 1087,3 hPa 0,0 mm S 185 5,0 km/h (1 Bft)
09.08.2011 19:30 15,1 C 72 % 1087,1 hPa 0,0 mm N 357 5,0 km/h (1 Bft)
09.08.2011 19:35 15,1 C 72 % 1087,4 hPa 0,0 mm W 270 5,0 km/h (1 Bft)
09.08.2011 19:40 15,0 C 72 % 1087,5 hPa 0,0 mm W-SW 239 9,7 km/h (2 Bft)
09.08.2011 19:45 15,1 C 71 % 1087,3 hPa 0,0 mm W-SW 256 9,7 km/h (2 Bft)
09.08.2011 19:50 15,1 C 70 % 1087,6 hPa 0,0 mm W-SW 239 14,8 km/h (3 Bft)
09.08.2011 19:55 15,2 C 68 % 1087,6 hPa 0,0 mm W-SW 239 14,8 km/h (3 Bft)
09.08.2011 20:00 15,3 C 67 % 1087,8 hPa 0,0 mm W 270 14,8 km/h (3 Bft)
09.08.2011 20:05 15,3 C 67 % 1087,7 hPa 0,0 mm W-SW 245 13,3 km/h (3 Bft)
09.08.2011 20:10 15,3 C 65 % 1088,3 hPa 0,0 mm SW 235 17,3 km/h (3 Bft)
09.08.2011 20:15 15,2 C 67 % 1088,3 hPa 0,0 mm SW 233 18,4 km/h (3 Bft)
09.08.2011 20:20 15,1 C 67 % 1088,5 hPa 0,0 mm W-SW 237 18,4 km/h (3 Bft)
09.08.2011 20:25 14,9 C 70 % 1088,8 hPa 0,0 mm W-SW 239 27,0 km/h (4 Bft)
09.08.2011 20:30 14,3 C 72 % 1088,8 hPa 0,0 mm SW 228 27,0 km/h (4 Bft)
09.08.2011 20:35 13,8 C 75 % 1089,3 hPa 0,0 mm SW 220 27,0 km/h (4 Bft)
09.08.2011 20:40 13,5 C 77 % 1089,2 hPa 0,0 mm SW 220 11,2 km/h (2 Bft)
09.08.2011 20:45 13,3 C 78 % 1089,3 hPa 0,0 mm SW 219 11,2 km/h (2 Bft)
09.08.2011 20:50 13,2 C 79 % 1089,4 hPa 0,0 mm S 189 7,2 km/h (2 Bft)
09.08.2011 20:55 13,1 C 80 % 1089,5 hPa 0,0 mm S-SW 194 7,2 km/h (2 Bft)
09.08.2011 21:00 13,0 C 81 % 1089,6 hPa 0,0 mm S-SO 160 6,1 km/h (2 Bft)
09.08.2011 21:05 13,0 C 81 % 1089,8 hPa 0,0 mm SO 140 6,1 km/h (2 Bft)
09.08.2011 21:10 12,8 C 82 % 1089,8 hPa 0,0 mm SO 141 3,6 km/h (1 Bft)
09.08.2011 21:15 12,8 C 83 % 1089,8 hPa 0,0 mm S-SO 149 3,6 km/h (1 Bft)
09.08.2011 21:20 12,8 C 83 % 1089,6 hPa 0,0 mm SO 135 2,5 km/h (1 Bft)
09.08.2011 21:25 12,8 C 84 % 1089,7 hPa 0,0 mm O 90 2,5 km/h (1 Bft)
09.08.2011 21:30 12,8 C 84 % 1089,7 hPa 0,0 mm O 100 2,5 km/h (1 Bft)
09.08.2011 21:35 12,7 C 85 % 1089,6 hPa 0,0 mm O 101 2,5 km/h (1 Bft)
09.08.2011 21:40 12,7 C 85 % 1089,8 hPa 0,0 mm O 90 2,5 km/h (1 Bft)
09.08.2011 21:45 12,5 C 86 % 1089,9 hPa 0,0 mm O 90 2,5 km/h (1 Bft)
09.08.2011 21:50 12,4 C 87 % 1089,7 hPa 0,0 mm O 90 1,1 km/h (1 Bft)
09.08.2011 21:55 12,4 C 87 % 1090,0 hPa 0,0 mm O-SO 120 2,5 km/h (1 Bft)
09.08.2011 22:00 12,4 C 88 % 1089,9 hPa 0,0 mm S 172 2,5 km/h (1 Bft)
09.08.2011 22:05 12,4 C 88 % 1090,2 hPa 0,0 mm SO 143 2,5 km/h (1 Bft)
09.08.2011 22:10 12,4 C 88 % 1090,1 hPa 0,3 mm O-SO 111 3,6 km/h (1 Bft)
09.08.2011 22:15 12,3 C 88 % 1090,3 hPa 0,0 mm SO 125 3,6 km/h (1 Bft)
09.08.2011 22:20 12,4 C 88 % 1090,1 hPa 0,0 mm S-SW 192 7,2 km/h (2 Bft)
09.08.2011 22:25 12,4 C 88 % 1090,0 hPa 0,0 mm SW 218 7,2 km/h (2 Bft)
09.08.2011 22:30 12,5 C 88 % 1090,1 hPa 0,0 mm W-SW 242 6,1 km/h (2 Bft)
09.08.2011 22:35 12,4 C 88 % 1090,0 hPa 0,0 mm SW 227 7,2 km/h (2 Bft)
09.08.2011 22:40 12,2 C 88 % 1090,2 hPa 0,0 mm S 186 7,2 km/h (2 Bft)
09.08.2011 22:45 12,1 C 89 % 1090,3 hPa 0,0 mm S-SO 158 5,0 km/h (1 Bft)
09.08.2011 22:50 12,0 C 89 % 1090,2 hPa 0,0 mm S-SO 163 5,0 km/h (1 Bft)
09.08.2011 22:55 11,9 C 89 % 1090,4 hPa 0,0 mm SW 225 3,6 km/h (1 Bft)
09.08.2011 23:00 11,8 C 90 % 1090,3 hPa 0,0 mm SW 225 2,5 km/h (1 Bft)
09.08.2011 23:05 11,8 C 90 % 1090,3 hPa 0,0 mm N 0 0,0 km/h (0 Bft)
09.08.2011 23:10 11,8 C 91 % 1090,3 hPa 0,0 mm N 0 0,0 km/h (0 Bft)
09.08.2011 23:15 11,8 C 92 % 1090,5 hPa 0,0 mm N 0 0,0 km/h (0 Bft)
09.08.2011 23:20 11,9 C 93 % 1090,7 hPa 0,0 mm SW 232 12,2 km/h (2 Bft)
09.08.2011 23:25 12,0 C 90 % 1091,1 hPa 0,0 mm SW 233 23,4 km/h (4 Bft)
09.08.2011 23:30 12,0 C 89 % 1090,9 hPa 0,3 mm W-SW 238 24,5 km/h (4 Bft)
09.08.2011 23:35 11,8 C 90 % 1091,2 hPa 0,0 mm W-SW 249 24,5 km/h (4 Bft)
09.08.2011 23:40 11,7 C 91 % 1091,1 hPa 0,0 mm W-SW 254 15,8 km/h (3 Bft)
09.08.2011 23:45 11,6 C 92 % 1091,1 hPa 0,3 mm W-SW 247 8,6 km/h (2 Bft)
09.08.2011 23:50 11,5 C 92 % 1091,2 hPa 0,0 mm W-SW 252 8,6 km/h (2 Bft)
09.08.2011 23:55 11,4 C 92 % 1091,1 hPa 0,0 mm SW 220 5,0 km/h (1 Bft)
_ Min-Zeit 04:25 12:35 12:40 - - - 00:40
Minimum _ 11,2 C 61 % 1085,4 hPa - - - 0,0 km/h (0 Bft)
_ Max-Zeit 12:40 00:00 23:35 13:10 - - 13:00
Maximum _ 18,8 C 99 % 1091,2 hPa 1,5 mm - - 28,1 km/h
SW (4 Bft)
Durchschnitt _ 13,9 C 88 % 1087,5 hPa #5,1 mm W - 8,1 km/h (2 Bft)